| time (UTC) | temp F | wind direction | speed knots | gust knots | rain 1hr in | rain 24hr in | rain mn in | humidity % | barometer mb |
| 20260504032704 | 46 | 251 | 1.7 | 1.7 | 0.00 | 0.03 | 0.01 | 81 | 1017.2 |
| 20260504032203 | 46 | 242 | 0.9 | 1.7 | 0.00 | 0.03 | 0.01 | 81 | 1017.2 |
| 20260504031704 | 46 | 270 | 0.9 | 1.7 | 0.00 | 0.03 | 0.01 | 80 | 1017.4 |
| 20260504031204 | 47 | 267 | 0.9 | 0.9 | 0.00 | 0.03 | 0.01 | 79 | 1017.3 |
| 20260504030203 | 47 | 275 | 0.9 | 1.7 | 0.00 | 0.03 | 0.01 | 77 | 1017.4 |
| 20260504025203 | 47 | 280 | 0.9 | 0.9 | 0.00 | 0.03 | 0.01 | 76 | 1017.2 |
| 20260504024704 | 48 | 253 | 0.9 | 1.7 | 0.00 | 0.03 | 0.01 | 75 | 1017.3 |
| 20260504023704 | 48 | 257 | 0.0 | 1.7 | 0.00 | 0.03 | 0.01 | 75 | 1017.3 |
| 20260504023206 | 49 | 264 | 0.9 | 1.7 | 0.00 | 0.03 | 0.01 | 75 | 1017.2 |
| 20260504022705 | 49 | 252 | 0.9 | 1.7 | 0.00 | 0.03 | 0.01 | 74 | 1017.2 |
| 20260504022204 | 50 | 257 | 0.9 | 1.7 | 0.00 | 0.03 | 0.01 | 73 | 1017.1 |
| 20260504021705 | 50 | 262 | 0.9 | 1.7 | 0.00 | 0.03 | 0.01 | 71 | 1016.9 |
| 20260504020704 | 51 | 295 | 0.0 | 1.7 | 0.00 | 0.03 | 0.01 | 68 | 1016.6 |
| 20260504020204 | 51 | 290 | 0.9 | 1.7 | 0.00 | 0.03 | 0.01 | 67 | 1016.6 |
| 20260504015704 | 51 | 282 | 0.9 | 1.7 | 0.00 | 0.03 | 0.01 | 66 | 1016.1 |
| 20260504014704 | 52 | 232 | 0.0 | 0.9 | 0.00 | 0.03 | 0.01 | 64 | 1016.3 |
| 20260504013705 | 52 | 282 | 0.9 | 1.7 | 0.00 | 0.03 | 0.01 | 63 | 1016.0 |
| 20260504013205 | 52 | 279 | 0.9 | 1.7 | 0.00 | 0.03 | 0.01 | 63 | 1016.0 |
| 20260504012705 | 53 | 293 | 0.9 | 1.7 | 0.00 | 0.03 | 0.01 | 62 | 1016.0 |
| 20260504012205 | 53 | 295 | 0.9 | 1.7 | 0.00 | 0.03 | 0.01 | 60 | 1015.9 |
| 20260504011705 | 54 | 291 | 0.9 | 0.9 | 0.00 | 0.03 | 0.01 | 60 | 1015.8 |
| 20260504011205 | 55 | 259 | 0.0 | 0.9 | 0.00 | 0.03 | 0.01 | 59 | 1015.7 |
| 20260504010705 | 55 | 262 | 0.0 | 1.7 | 0.00 | 0.03 | 0.01 | 55 | 1015.8 |
| 20260504010204 | 56 | 241 | 0.9 | 1.7 | 0.00 | 0.03 | 0.01 | 52 | 1015.8 |
| 20260504005705 | 56 | 279 | 0.0 | 1.7 | 0.00 | 0.03 | 0.01 | 51 | 1015.8 |
| 20260504005207 | 57 | 284 | 0.9 | 1.7 | 0.00 | 0.03 | 0.01 | 50 | 1015.8 |
| 20260504004704 | 57 | 281 | 0.9 | 0.9 | 0.00 | 0.03 | 0.01 | 50 | 1015.7 |
| 20260504004205 | 58 | 298 | 0.9 | 0.9 | 0.00 | 0.03 | 0.01 | 50 | 1015.8 |
| 20260504003705 | 59 | 305 | 0.0 | 0.9 | 0.00 | 0.03 | 0.01 | 49 | 1015.5 |
| 20260504003205 | 60 | 291 | 0.0 | 1.7 | 0.00 | 0.03 | 0.01 | 47 | 1015.5 |
| 20260504002704 | 60 | 309 | 0.0 | 2.6 | 0.00 | 0.03 | 0.01 | 46 | 1015.6 |
| 20260504002205 | 62 | 316 | 0.9 | 2.6 | 0.00 | 0.03 | 0.01 | 44 | 1015.6 |
| 20260504001205 | 63 | 253 | 2.6 | 6.1 | 0.00 | 0.03 | 0.01 | 40 | 1015.7 |
| 20260504000705 | 63 | 224 | 2.6 | 6.1 | 0.00 | 0.03 | 0.01 | 39 | 1015.8 |
| 20260504000204 | 64 | 225 | 4.3 | 6.1 | 0.00 | 0.03 | 0.01 | 38 | 1015.4 |
| 20260503235206 | 64 | 217 | 2.6 | 6.1 | 0.00 | 0.03 | 0.01 | 38 | 1015.8 |
| 20260503234704 | 64 | 217 | 2.6 | 6.1 | 0.00 | 0.03 | 0.01 | 37 | 1015.9 |
| 20260503234205 | 65 | 230 | 3.5 | 6.1 | 0.00 | 0.03 | 0.01 | 36 | 1015.8 |
| 20260503233704 | 65 | 216 | 4.3 | 7.8 | 0.00 | 0.03 | 0.01 | 36 | 1015.8 |
| 20260503233204 | 65 | 216 | 3.5 | 7.8 | 0.00 | 0.03 | 0.01 | 35 | 1016.0 |
| 20260503232705 | 65 | 222 | 4.3 | 7.8 | 0.00 | 0.04 | 0.01 | 34 | 1016.1 |
| 20260503232205 | 65 | 228 | 4.3 | 10.4 | 0.00 | 0.04 | 0.01 | 34 | 1016.0 |
| 20260503231704 | 65 | 212 | 4.3 | 10.4 | 0.00 | 0.04 | 0.01 | 34 | 1016.2 |
| 20260503230705 | 65 | 245 | 1.7 | 7.0 | 0.00 | 0.04 | 0.01 | 35 | 1016.2 |
| 20260503230204 | 65 | 226 | 4.3 | 7.8 | 0.00 | 0.04 | 0.01 | 34 | 1016.2 |
| 20260503225704 | 66 | 206 | 2.6 | 7.8 | 0.00 | 0.04 | 0.01 | 35 | 1016.2 |
| 20260503225204 | 66 | 216 | 5.2 | 8.7 | 0.00 | 0.04 | 0.01 | 33 | 1016.2 |
| 20260503224705 | 66 | 229 | 5.2 | 8.7 | 0.00 | 0.04 | 0.01 | 34 | 1016.2 |
| 20260503224205 | 67 | 209 | 4.3 | 7.8 | 0.00 | 0.04 | 0.01 | 33 | 1016.3 |
| 20260503223704 | 66 | 254 | 1.7 | 10.4 | 0.00 | 0.04 | 0.01 | 33 | 1016.3 |
| 20260503223204 | 66 | 221 | 3.5 | 10.4 | 0.00 | 0.04 | 0.01 | 33 | 1016.6 |
| 20260503222706 | 66 | 216 | 6.1 | 10.4 | 0.00 | 0.04 | 0.01 | 33 | 1016.5 |
| 20260503222204 | 66 | 210 | 4.3 | 8.7 | 0.00 | 0.04 | 0.01 | 32 | 1016.5 |
| 20260503221705 | 66 | 226 | 3.5 | 11.3 | 0.00 | 0.04 | 0.01 | 32 | 1016.5 |
| 20260503220704 | 67 | 206 | 4.3 | 7.8 | 0.00 | 0.04 | 0.01 | 33 | 1016.6 |
| 20260503220205 | 68 | 220 | 4.3 | 7.8 | 0.00 | 0.04 | 0.01 | 31 | 1016.7 |
| 20260503215705 | 67 | 280 | 1.7 | 5.2 | 0.00 | 0.04 | 0.01 | 33 | 1016.7 |
| 20260503215205 | 68 | 251 | 2.6 | 5.2 | 0.00 | 0.04 | 0.01 | 32 | 1016.5 |
| 20260503214705 | 66 | 267 | 0.9 | 7.0 | 0.00 | 0.04 | 0.01 | 32 | 1017.0 |
| 20260503214205 | 66 | 286 | 2.6 | 7.8 | 0.00 | 0.04 | 0.01 | 32 | 1016.8 |
| 20260503213705 | 66 | 229 | 2.6 | 8.7 | 0.00 | 0.04 | 0.01 | 34 | 1016.9 |
| 20260503213204 | 66 | 210 | 4.3 | 8.7 | 0.00 | 0.04 | 0.01 | 33 | 1017.1 |
| 20260503211705 | 67 | 324 | 2.6 | 6.1 | 0.00 | 0.04 | 0.01 | 32 | 1017.2 |
| 20260503211205 | 67 | 217 | 1.7 | 5.2 | 0.00 | 0.04 | 0.01 | 32 | 1017.5 |
| 20260503210704 | 66 | 229 | 2.6 | 11.3 | 0.00 | 0.04 | 0.01 | 34 | 1017.4 |
| 20260503210204 | 66 | 218 | 4.3 | 11.3 | 0.00 | 0.04 | 0.01 | 33 | 1017.6 |
| 20260503205705 | 67 | 206 | 6.1 | 11.3 | 0.00 | 0.04 | 0.01 | 32 | 1017.6 |
| 20260503205205 | 68 | 207 | 2.6 | 4.3 | 0.00 | 0.04 | 0.01 | 34 | 1017.5 |
| 20260503204705 | 66 | 251 | 1.7 | 5.2 | 0.00 | 0.04 | 0.01 | 34 | 1017.7 |
| 20260503204204 | 66 | 245 | 2.6 | 7.0 | 0.00 | 0.04 | 0.01 | 34 | 1017.9 |
| 20260503203704 | 65 | 58 | 1.7 | 7.8 | 0.00 | 0.04 | 0.01 | 32 | 1017.9 |
| 20260503203204 | 66 | 226 | 5.2 | 8.7 | 0.00 | 0.04 | 0.01 | 34 | 1017.9 |
| 20260503202704 | 66 | 209 | 5.2 | 8.7 | 0.00 | 0.04 | 0.01 | 34 | 1018.2 |
| 20260503201204 | 65 | 217 | 1.7 | 7.0 | 0.00 | 0.04 | 0.01 | 32 | 1018.5 |
| 20260503200706 | 65 | 235 | 4.3 | 8.7 | 0.00 | 0.04 | 0.01 | 32 | 1018.7 |
| 20260503200205 | 65 | 280 | 2.6 | 8.7 | 0.00 | 0.04 | 0.01 | 32 | 1018.8 |
| 20260503195705 | 65 | 218 | 5.2 | 8.7 | 0.00 | 0.04 | 0.01 | 32 | 1019.0 |
| 20260503194704 | 65 | 220 | 3.5 | 7.8 | 0.00 | 0.04 | 0.01 | 30 | 1019.0 |
| 20260503194205 | 66 | 215 | 5.2 | 7.8 | 0.00 | 0.04 | 0.01 | 30 | 1019.1 |
| 20260503193704 | 65 | 236 | 2.6 | 8.7 | 0.00 | 0.04 | 0.01 | 31 | 1019.2 |
| 20260503193205 | 65 | 213 | 4.3 | 8.7 | 0.00 | 0.04 | 0.01 | 33 | 1019.2 |
| 20260503192705 | 65 | 238 | 4.3 | 6.1 | 0.00 | 0.04 | 0.01 | 33 | 1019.3 |
| 20260503192205 | 63 | 89 | 1.7 | 7.8 | 0.00 | 0.04 | 0.01 | 33 | 1019.5 |
| 20260503191705 | 64 | 249 | 4.3 | 11.3 | 0.00 | 0.04 | 0.01 | 35 | 1019.6 |
| 20260503191204 | 63 | 214 | 4.3 | 11.3 | 0.00 | 0.04 | 0.01 | 33 | 1019.6 |
| 20260503190705 | 64 | 274 | 3.5 | 8.7 | 0.00 | 0.04 | 0.01 | 35 | 1019.7 |
| 20260503185704 | 62 | 182 | 3.5 | 7.8 | 0.00 | 0.04 | 0.01 | 35 | 1019.8 |
| 20260503185204 | 63 | 234 | 4.3 | 7.8 | 0.00 | 0.04 | 0.01 | 35 | 1019.9 |
| 20260503184705 | 64 | 207 | 5.2 | 7.0 | 0.00 | 0.04 | 0.01 | 35 | 1019.8 |
| 20260503184204 | 62 | 154 | 2.6 | 6.1 | 0.00 | 0.04 | 0.01 | 35 | 1020.0 |
| 20260503183705 | 63 | 297 | 2.6 | 6.1 | 0.00 | 0.04 | 0.01 | 35 | 1019.9 |
| 20260503183204 | 63 | 262 | 3.5 | 6.1 | 0.00 | 0.04 | 0.01 | 36 | 1020.1 |
| 20260503182704 | 64 | 268 | 3.5 | 10.4 | 0.00 | 0.04 | 0.01 | 37 | 1020.2 |
| 20260503182204 | 63 | 258 | 4.3 | 10.4 | 0.00 | 0.04 | 0.01 | 36 | 1020.1 |
| 20260503181705 | 63 | 241 | 3.5 | 6.1 | 0.00 | 0.04 | 0.01 | 37 | 1020.1 |
| 20260503181205 | 62 | 230 | 2.6 | 7.0 | 0.00 | 0.04 | 0.01 | 38 | 1020.3 |
| 20260503180704 | 62 | 247 | 4.3 | 7.0 | 0.00 | 0.04 | 0.01 | 35 | 1020.4 |
| 20260503180204 | 61 | 286 | 1.7 | 10.4 | 0.00 | 0.04 | 0.01 | 36 | 1020.6 |
| 20260503175704 | 61 | 218 | 2.6 | 10.4 | 0.00 | 0.04 | 0.01 | 37 | 1020.5 |
| 20260503175204 | 62 | 217 | 5.2 | 10.4 | 0.00 | 0.04 | 0.01 | 36 | 1020.6 |
| 20260503174205 | 61 | 186 | 2.6 | 7.0 | 0.00 | 0.04 | 0.01 | 37 | 1020.5 |
| 20260503173204 | 62 | 194 | 4.3 | 8.7 | 0.00 | 0.04 | 0.01 | 34 | 1020.8 |
| 20260503172705 | 61 | 233 | 1.7 | 6.1 | 0.00 | 0.04 | 0.01 | 35 | 1020.9 |
| 20260503172205 | 62 | 233 | 4.3 | 6.1 | 0.00 | 0.04 | 0.01 | 37 | 1020.9 |
| 20260503171705 | 60 | 274 | 1.7 | 5.2 | 0.00 | 0.04 | 0.01 | 36 | 1021.1 |
| 20260503171204 | 60 | 132 | 2.6 | 7.8 | 0.00 | 0.04 | 0.01 | 35 | 1021.2 |
| 20260503170705 | 60 | 288 | 1.7 | 7.8 | 0.00 | 0.04 | 0.01 | 37 | 1021.3 |
| 20260503170205 | 60 | 325 | 2.6 | 8.7 | 0.00 | 0.04 | 0.01 | 37 | 1021.5 |
| 20260503150204 | 54 | 22 | 1.7 | 5.2 | 0.00 | 0.04 | 0.01 | 49 | 1022.5 |
| 20260503140204 | 51 | 108 | 1.7 | 4.3 | 0.01 | 0.04 | 0.01 | 75 | 1022.8 |
| 20260503131206 | 45 | 174 | 1.7 | 2.6 | 0.00 | 0.03 | 0.00 | 97 | 1023.1 |
| 20260503130704 | 44 | 230 | 1.7 | 2.6 | 0.00 | 0.03 | 0.00 | 97 | 1023.1 |
| 20260503120204 | 38 | 224 | 0.9 | 1.7 | 0.00 | 0.04 | 0.00 | 96 | 1023.0 |
| 20260503110704 | 33 | 261 | 0.9 | 1.7 | 0.00 | 0.04 | 0.00 | 97 | 1022.5 |
| 20260503110204 | 33 | 249 | 0.9 | 2.6 | 0.00 | 0.04 | 0.00 | 97 | 1022.4 |
| 20260503100205 | 33 | 255 | 0.9 | 1.7 | 0.00 | 0.04 | 0.00 | 97 | 1022.0 |
| 20260503080204 | 36 | 242 | 1.7 | 2.6 | 0.00 | 0.04 | 0.00 | 97 | 1021.6 |
| 20260503072704 | 37 | 254 | 0.9 | 2.6 | 0.00 | 0.04 | 0.00 | 96 | 1021.5 |
| 20260503072204 | 37 | 244 | 1.7 | 2.6 | 0.00 | 0.04 | 0.00 | 96 | 1021.8 |
| 20260503071204 | 37 | 263 | 1.7 | 2.6 | 0.00 | 0.04 | 0.00 | 96 | 1021.4 |
| 20260503070704 | 37 | 266 | 1.7 | 2.6 | 0.00 | 0.04 | 0.00 | 96 | 1021.3 |
| 20260503070204 | 37 | 297 | 1.7 | 2.6 | 0.00 | 0.04 | 0.00 | 96 | 1021.3 |
| 20260503060204 | 38 | 243 | 0.9 | 2.6 | 0.00 | 0.04 | 0.00 | 96 | 1021.5 |
| 20260503054704 | 38 | 245 | 0.9 | 1.7 | 0.00 | 0.04 | 0.02 | 96 | 1021.0 |
| 20260503053704 | 39 | 260 | 0.9 | 2.6 | 0.00 | 0.04 | 0.02 | 96 | 1021.1 |
| 20260503052703 | 39 | 273 | 0.9 | 1.7 | 0.00 | 0.04 | 0.02 | 96 | 1021.2 |
| 20260503052204 | 39 | 256 | 0.9 | 1.7 | 0.00 | 0.04 | 0.02 | 96 | 1021.2 |
| 20260503051704 | 40 | 274 | 0.9 | 1.7 | 0.00 | 0.04 | 0.02 | 96 | 1021.1 |
| 20260503051204 | 40 | 272 | 0.9 | 1.7 | 0.00 | 0.04 | 0.02 | 96 | 1020.9 |
| 20260503050204 | 41 | 259 | 1.7 | 2.6 | 0.00 | 0.04 | 0.02 | 96 | 1021.0 |
| 20260503045705 | 41 | 254 | 1.7 | 2.6 | 0.00 | 0.03 | 0.02 | 96 | 1021.0 |
| 20260503045204 | 41 | 259 | 1.7 | 2.6 | 0.00 | 0.03 | 0.02 | 95 | 1020.8 |
| 20260503044703 | 41 | 271 | 1.7 | 1.7 | 0.00 | 0.03 | 0.02 | 95 | 1020.8 |
| 20260503044203 | 41 | 276 | 1.7 | 2.6 | 0.00 | 0.03 | 0.02 | 95 | 1020.7 |
| 20260503042704 | 41 | 250 | 2.6 | 2.6 | 0.00 | 0.03 | 0.02 | 95 | 1020.6 |
| 20260503042203 | 41 | 241 | 1.7 | 2.6 | 0.00 | 0.03 | 0.02 | 95 | 1020.7 |
| 20260503041204 | 41 | 271 | 0.9 | 1.7 | 0.00 | 0.03 | 0.02 | 95 | 1020.7 |
| 20260503040704 | 41 | 271 | 1.7 | 1.7 | 0.00 | 0.03 | 0.02 | 95 | 1020.7 |
| 20260503040205 | 41 | 256 | 1.7 | 1.7 | 0.00 | 0.03 | 0.02 | 95 | 1020.8 |
| 20260503035706 | 41 | 227 | 1.7 | 1.7 | 0.00 | 0.03 | 0.02 | 95 | 1020.7 |
| 20260503035204 | 41 | 253 | 0.9 | 1.7 | 0.00 | 0.03 | 0.02 | 94 | 1020.7 |
| 20260503034703 | 42 | 267 | 0.9 | 1.7 | 0.00 | 0.03 | 0.02 | 94 | 1020.5 |
| 20260503034205 | 42 | 270 | 0.9 | 1.7 | 0.00 | 0.03 | 0.02 | 94 | 1020.6 |
| 20260503033703 | 42 | 276 | 0.9 | 1.7 | 0.00 | 0.03 | 0.02 | 94 | 1020.5 |
| 20260503033204 | 42 | 262 | 0.9 | 1.7 | 0.00 | 0.03 | 0.02 | 94 | 1020.4 |